Notices

What's New in latest Release from April 7th, 2021:

- Updated Glossary, including Speed of Maximum Gust, and Total Hourly Precipitation

- Updated national and regional climate services offices contacts and prices information

- Addition of station inventory lists for 1981-2010, 1971-2000, and 1961-1990 Normals.

If you haven't already, please take our survey and provide feedback about our website: https://eccc.sondage-survey.ca/f/LanguageSelection.aspx?s=442ca660-fcf1-47c0-95a9-59707d6fd709

Hourly Data Report for August 06, 2019

TORONTO CITY
ONTARIO
Current Station Operator: ECCC - MSC

43°40'00.000" N
79°24'00.000" W
112.50 m
6158355
71508
XTO

Download Data

Hourly Data (August 2019)
Hourly Data Report for August 6, 2019
TIME
LST
Temp Definition
°C
Dew Point Definition
°C
Rel Hum Definition
%
Precip. Amount Definition
mm

Wind Dir Definition
10's deg

Wind Spd Definition
km/h
Visibility Definition
km
Stn Press Definition
kPa
Hmdx Definition


Wind Chill Definition


Weather Definition


00:00 22.0 17.1 74 0.0       99.66 27   LegendNANA
01:00 21.4 17.5 79 0.0       99.60 27   LegendNANA
02:00 21.2 17.7 80 0.0       99.54 27   LegendNANA
03:00 21.1 17.7 81 0.0       99.49 27   LegendNANA
04:00 21.0 18.3 84 0.0       99.48 27   LegendNANA
05:00 21.6 18.8 84 0.0       99.45 28   LegendNANA
06:00 21.6 19.0 86 0.0       99.45 28   LegendNANA
07:00 22.7 19.3 81 0.0       99.46 30   LegendNANA
08:00 23.5 19.3 77 0.0       99.47 31   LegendNANA
09:00 24.3 20.0 77 0.0       99.45 32   LegendNANA
10:00 20.2 17.5 85 2.2       99.45 26   LegendNANA
11:00 21.1 18.1 83 1.2       99.49 27   LegendNANA
12:00 22.8 20.0 85 1.3       99.42 30   LegendNANA
13:00 23.3 18.8 76 0.0       99.35 30   LegendNANA
14:00 25.4 19.7 71 0.0       99.29 33   LegendNANA
15:00 25.6 18.4 65 0.0       99.29 32   LegendNANA
16:00 24.9 17.1 62 0.0       99.34 30   LegendNANA
17:00 25.4 18.1 64 0.0       99.34 31   LegendNANA
18:00 23.8 20.1 80 0.4       99.34 31   LegendNANA
19:00 23.7 18.9 75 0.0       99.38 30   LegendNANA
20:00 22.5 18.2 77 0.0       99.39 29   LegendNANA
21:00 23.0 18.5 76 0.0       99.41 29   LegendNANA
22:00 22.5 18.5 78 0.0       99.42 29   LegendNANA
23:00 22.7 18.4 77 0.0       99.42 29   LegendNANA

Notes on Data Quality.

Legend

  • E = Estimated
  • M = Missing
  • NA = Not Available*
  • [empty] = Indicates an unobserved value
Date modified: